"Pseudo-MPEC" for P21Y3OA

Created 2024 Sep 6 17:22:24 UT using Find_Orb

Click here for an explanation of pseudo-MPECs

 
 Astrometry: 
     P21Y3OA* C2024 09 05.41716100 47 23.246+18 39 33.38   ~95Bb 20.64wXNEOCPF52
     P21Y3OA  C2024 09 05.42838400 47 20.292+18 38 52.56   ~95Bb 20.82wXNEOCPF52
     P21Y3OA  C2024 09 05.43961200 47 17.297+18 38 11.50   ~95Bb 20.87wXNEOCPF52
     P21Y3OA  C2024 09 05.45088900 47 14.247+18 37 29.79   ~95Bb 20.74wXNEOCPF52
     P21Y3OA  C2024 09 05.54090000 46 49.503+18 31 46.02   ~95J7 20.39GVNEOCPF52
     P21Y3OA  C2024 09 05.54221500 46 49.152+18 31 40.99   ~95J7 20.23GVNEOCPF52
     P21Y3OA 1C2024 09 05.97512 00 45 37.73 +18 02 14.0    ~966M 21.0 VXNEOCP033
     P21Y3OA 1C2024 09 05.97624 00 45 37.46 +18 02 09.8    ~966M 20.8 VXNEOCP033
     P21Y3OA 1C2024 09 05.97737 00 45 37.20 +18 02 05.6    ~966M 20.9 VXNEOCP033

Station data:
(033) Karl Schwarzschild Observatory, Tautenburg  (N50.980139 E11.711240)
   Germany.  Observer B. Stecklum. 1.34-m f/3 Schmidt + CCD.
(F52) Pan-STARRS 2, Haleakala  (N20.707382 W156.255910)  US/Hawaii.
   Observers J. Bulger, T. Dukes, T. Lowe, A. Schultz, M. Willman. Measurers
   K. Chambers, S. Chastel, T. de Boer, L. Denneau, J. Fairlamb, H.
   Flewelling, M. Huber, C.-C. Lin, E. Magnier, Y. Ramanjooloo, R. Wainscoat,
   R. Weryk. 1.8-m Ritchey-Chrétien + CCD.

Orbital elements:  P21Y3OA
   Perihelion 2024 Jun 20.86753 +/- 1.14 TT = 20:49:14 (JD 2460482.36753)
Epoch 2024 Sep  6.0 TT = JDT 2460559.5   Earth MOID: 0.0070      AutoNEOCP
M  69.14860168 +/- 1.2              (J2000 ecliptic)
n   0.89649142 +/- 0.00306          Peri.   75.18557 +/- 0.53
a   1.06521830 +/- 0.00243          Node   191.20333 +/- 0.54
e   0.0832110 +/- 0.00199           Incl.    1.02736 +/- 0.019
P   1.099/401.558d         H 26.21  G  0.15   U  8.9
q 0.97658035 +/- 0.000115    Q 1.15385626 +/- 0.00475
From 9 observations 2024 Sept. 5 (13.4 hr); mean residual 0".05
Residuals in arcseconds: 
240905 F52  .04-  .03-    240905 F52  .07-  .01-    240905 033  .01+  .06+    
240905 F52  .05+  .01-    240905 F52  .06-  .08-    240905 033  .06-  .01-    
240905 F52  .07+  .07+    240905 F52  .07+  .07+    240905 033  .05+  .05-    

Ephemerides (geocentric):
Date (UTC) HH   RA             Dec           delta  r     elong  mag " sig PA
---- --------  ------------   ------------  ------ ------ -----  --- --------
2024 09 06 17  00 43 23.777   +17 18 27.76  .04027 1.0413 145.6 20.7 1.12  41
2024 09 06 18  00 43 16.491   +17 15 53.41  .04031 1.0414 145.7 20.7 1.23  40
2024 09 06 19  00 43 09.215   +17 13 19.26  .04035 1.0415 145.8 20.7 1.35  40
2024 09 06 20  00 43 01.951   +17 10 45.31  .04039 1.0415 145.9 20.7 1.47  40
2024 09 06 21  00 42 54.697   +17 08 11.56  .04043 1.0416 146.0 20.7 1.60  39
2024 09 06 22  00 42 47.455   +17 05 38.02  .04047 1.0416 146.1 20.7 1.73  39
2024 09 06 23  00 42 40.223   +17 03 04.68  .04051 1.0417 146.2 20.7 1.87  39
2024 09 07 00  00 42 33.002   +17 00 31.54  .04055 1.0417 146.3 20.7 2.01  38
2024 09 07 01  00 42 25.792   +16 57 58.61  .04059 1.0418 146.3 20.7 2.16  38
2024 09 07 02  00 42 18.593   +16 55 25.88  .04063 1.0419 146.4 20.7 2.31  38
2024 09 07 03  00 42 11.405   +16 52 53.34  .04067 1.0419 146.5 20.7 2.47  38
2024 09 07 04  00 42 04.228   +16 50 21.01  .04071 1.0420 146.6 20.7 2.63  37
2024 09 07 05  00 41 57.062   +16 47 48.89  .04075 1.0420 146.7 20.7 2.80  37
2024 09 07 06  00 41 49.906   +16 45 16.96  .04080 1.0421 146.8 20.7 2.97  37
2024 09 07 07  00 41 42.761   +16 42 45.24  .04084 1.0421 146.9 20.7 3.14  37
2024 09 07 08  00 41 35.627   +16 40 13.72  .04088 1.0422 147.0 20.7 3.32  37
2024 09 07 09  00 41 28.504   +16 37 42.40  .04092 1.0423 147.0 20.7 3.50  37
2024 09 07 10  00 41 21.392   +16 35 11.28  .04096 1.0423 147.1 20.7 3.69  37
2024 09 07 11  00 41 14.290   +16 32 40.36  .04100 1.0424 147.2 20.7 3.88  36
2024 09 07 12  00 41 07.200   +16 30 09.65  .04104 1.0424 147.3 20.7 4.08  36
2024 09 07 13  00 41 00.119   +16 27 39.13  .04109 1.0425 147.4 20.7 4.28  36
2024 09 07 14  00 40 53.050   +16 25 08.82  .04113 1.0425 147.5 20.7 4.48  36
2024 09 07 15  00 40 45.991   +16 22 38.71  .04117 1.0426 147.6 20.7 4.69  36
2024 09 07 16  00 40 38.943   +16 20 08.80  .04121 1.0427 147.7 20.7 4.91  36
2024 09 07 17  00 40 31.906   +16 17 39.10  .04125 1.0427 147.7 20.7 5.13  36
2024 09 07 18  00 40 24.880   +16 15 09.59  .04129 1.0428 147.8 20.7 5.35  36
2024 09 07 19  00 40 17.864   +16 12 40.29  .04134 1.0428 147.9 20.7 5.57  36
2024 09 07 20  00 40 10.858   +16 10 11.18  .04138 1.0429 148.0 20.7 5.80  36
2024 09 07 21  00 40 03.864   +16 07 42.28  .04142 1.0429 148.1 20.7 6.04  36
2024 09 07 22  00 39 56.880   +16 05 13.58  .04146 1.0430 148.2 20.7 6.28  36
2024 09 07 23  00 39 49.906   +16 02 45.08  .04150 1.0431 148.3 20.7 6.52  36
2024 09 08 00  00 39 42.943   +16 00 16.78  .04155 1.0431 148.3 20.7 6.76  35
2024 09 08 01  00 39 35.991   +15 57 48.68  .04159 1.0432 148.4 20.7 7.02  35
2024 09 08 02  00 39 29.049   +15 55 20.78  .04163 1.0432 148.5 20.7 7.27  35
2024 09 08 03  00 39 22.118   +15 52 53.09  .04167 1.0433 148.6 20.7 7.53  35
2024 09 08 04  00 39 15.197   +15 50 25.59  .04171 1.0433 148.7 20.7 7.79  35
2024 09 08 05  00 39 08.287   +15 47 58.30  .04176 1.0434 148.8 20.7 8.06  35
2024 09 08 06  00 39 01.388   +15 45 31.20  .04180 1.0435 148.9 20.7 8.33  35
2024 09 08 07  00 38 54.499   +15 43 04.31  .04184 1.0435 148.9 20.7 8.60  35
2024 09 08 08  00 38 47.620   +15 40 37.61  .04188 1.0436 149.0 20.7 8.88  35
2024 09 08 09  00 38 40.752   +15 38 11.12  .04193 1.0436 149.1 20.7 9.16  35
2024 09 08 10  00 38 33.894   +15 35 44.83  .04197 1.0437 149.2 20.7 9.44  35
2024 09 08 11  00 38 27.047   +15 33 18.74  .04201 1.0437 149.3 20.7 9.73  35
2024 09 08 12  00 38 20.211   +15 30 52.85  .04206 1.0438 149.4 20.7 10.0  35
2024 09 08 13  00 38 13.384   +15 28 27.15  .04210 1.0439 149.5 20.7 10.3  35
2024 09 08 14  00 38 06.568   +15 26 01.66  .04214 1.0439 149.5 20.7 10.6  35
2024 09 08 15  00 37 59.763   +15 23 36.37  .04218 1.0440 149.6 20.7 10.9  35
2024 09 08 16  00 37 52.968   +15 21 11.28  .04223 1.0440 149.7 20.7 11.2  35